カタログに戻る

METEOR 2-5 DEB

運用中PO
NORAD 29293·DEBRIS·🇷🇺 Russia

打ち上げ Oct 31, 1979 から Plesetsk Cosmodrome

Loading…

次のパス (今後24時間)

TLE

経年Source: Space-Track

元期: Sep 10, 2026, 12:53 UTC

1 29293U 79095S   26253.53706042  .00006122  00000-0  15687-2 0  9990
2 29293  81.1973 356.8057 0005083 183.5251 176.5906 14.50256082127772

AllMySatでMETEOR 2-5 DEBをリアルタイム追跡

Download on the App Store